EW0611 Weather Reports


time (UTC)temp
C
wind
direction
speed
KPH
gust
KPH
rain 1hr
cm
rain 24hr
cm
rain mn
cm
humidity
%
barometer
mb
20260502210516 15 0.0 1.6 0.00 0.05 0.05 80 1012.3
20260502205516 15 0.0 0.0 0.00 0.05 0.05 80 1012.2
20260502204516 15 0.0 0.0 0.00 0.05 0.05 78 1012.4
20260502203536 15 0.0 1.6 0.00 0.05 0.05 75 1012.4
20260502202517 15 0.0 1.6 0.00 0.05 0.05 74 1012.3
20260502201516 15 0.0 3.2 0.00 0.05 0.05 72 1012.2
20260502200516 15 0.0 0.0 0.00 0.05 0.05 74 1012.2
20260502195516 15 0.0 1.6 0.00 0.05 0.05 74 1012.3
20260502194517 15 0.0 1.6 0.00 0.05 0.05 74 1012.4
20260502193536 15 0.0 3.2 0.00 0.05 0.05 74 1012.7
20260502192516 15 0.0 1.6 0.00 0.05 0.05 75 1012.7
20260502191517 15 0.0 0.0 0.00 0.05 0.05 79 1012.8
20260502190516 15 0.0 1.6 0.00 0.05 0.05 80 1012.8
20260502185536 15 0.0 3.2 0.00 0.05 0.05 79 1012.9
20260502184516 15 180 1.6 6.4 0.00 0.05 0.05 79 1012.9
20260502183516 15 0.0 1.6 0.00 0.05 0.05 82 1013.0
20260502182516 14 0.0 1.6 0.00 0.05 0.05 84 1013.3
20260502181516 13 0.0 3.2 0.00 0.05 0.05 86 1013.3
20260502180516 13 0.0 3.2 0.00 0.05 0.05 85 1013.3
20260502170516 13 225 1.6 4.8 0.03 0.05 0.05 87 1013.7
20260502163516 12 0.0 1.6 0.03 0.05 0.05 90 1014.6
20260502162536 12 0.0 1.6 0.03 0.05 0.05 90 1014.8
20260502161516 12 0.0 1.6 0.03 0.05 0.05 90 1014.9
20260502160516 12 0.0 1.6 0.00 0.03 0.03 91 1014.8
20260502151536 12 0.0 0.0 0.00 0.03 0.03 91 1014.5
20260502150516 12 0.0 1.6 0.03 0.03 0.03 91 1014.6
20260502130516 11 0.0 1.6 0.00 0.00 0.00 92 1013.6
20260502123515 11 0.0 0.0 0.00 0.00 0.00 92 1013.7
20260502122515 11 0.0 0.0 0.00 0.00 0.00 92 1013.3
20260502121537 11 0.0 0.0 0.00 0.00 0.00 92 1013.3
20260502120515 11 0.0 0.0 0.00 0.00 0.00 92 1013.3
20260502115515 11 0.0 0.0 0.00 0.00 0.00 92 1013.4
20260502114515 11 0.0 1.6 0.00 0.00 0.00 92 1013.6
20260502113515 11 0.0 1.6 0.00 0.00 0.00 92 1013.4
20260502112556 11 0.0 1.6 0.00 0.00 0.00 92 1013.5
20260502111515 11 0.0 0.0 0.00 0.00 0.00 92 1013.5
20260502110516 11 0.0 0.0 0.00 0.00 0.00 92 1013.6
20260502105515 11 0.0 0.0 0.00 0.00 0.00 92 1013.7
20260502104515 11 0.0 0.0 0.00 0.00 0.00 92 1013.7
20260502103515 11 0.0 0.0 0.00 0.00 0.00 92 1013.7
20260502102515 11 0.0 0.0 0.00 0.00 0.00 92 1013.8
20260502101556 11 0.0 1.6 0.00 0.00 0.00 91 1013.8
20260502100515 11 0.0 0.0 0.00 0.00 0.00 91 1013.8
20260502091515 10 0.0 0.0 0.00 0.00 0.00 91 1013.5
20260502090515 10 0.0 0.0 0.00 0.00 0.00 91 1013.4
20260502071516 10 0.0 0.0 0.00 0.00 0.00 91 1013.0
20260502070515 10 0.0 0.0 0.00 0.00 0.00 91 1013.0
20260502065515 10 0.0 0.0 0.00 0.00 0.00 92 1013.0
20260502064515 10 0.0 0.0 0.00 0.00 0.00 92 1013.2
20260502063515 10 0.0 0.0 0.00 0.00 0.00 92 1013.1
20260502062515 10 0.0 0.0 0.00 0.00 0.00 92 1013.1
20260502061515 10 0.0 0.0 0.00 0.00 0.00 92 1013.2
20260502060515 10 0.0 0.0 0.00 0.00 0.00 92 1013.1
20260502055515 10 0.0 0.0 0.00 0.00 0.00 92 1013.4
20260502054516 10 0.0 0.0 0.00 0.00 0.00 92 1013.3
20260502053515 10 0.0 0.0 0.00 0.00 0.00 92 1013.3
20260502052515 10 0.0 0.0 0.00 0.00 0.00 91 1013.3
20260502051517 10 0.0 0.0 0.00 0.00 0.00 91 1013.6
20260502050517 10 0.0 0.0 0.00 0.00 0.00 91 1013.7
20260502045517 10 0.0 0.0 0.00 0.00 0.00 91 1013.7
20260502044537 10 0.0 0.0 0.00 0.00 0.00 91 1013.7
20260502043518 10 0.0 0.0 0.00 0.00 0.00 91 1013.7
20260502042517 11 0.0 0.0 0.00 0.00 0.00 91 1013.7
20260502041517 11 0.0 0.0 0.00 0.00 0.00 91 1013.8
20260502040517 11 0.0 0.0 0.00 0.00 0.00 91 1013.8
20260502035535 11 0.0 0.0 0.00 0.00 0.00 90 1013.9
20260502034515 11 0.0 0.0 0.00 0.00 0.00 90 1014.0
20260502033555 11 0.0 0.0 0.00 0.00 0.00 90 1014.0
20260502032515 11 0.0 0.0 0.00 0.00 0.00 90 1013.9
20260502031515 11 0.0 0.0 0.00 0.00 0.00 90 1013.9
20260502030515 11 0.0 1.6 0.00 0.00 0.00 90 1013.9
20260502025515 11 0.0 0.0 0.00 0.00 0.00 90 1014.0
20260502024515 11 0.0 1.6 0.00 0.00 0.00 90 1014.0
20260502023515 11 0.0 1.6 0.00 0.00 0.00 90 1014.0
20260502022517 11 0.0 1.6 0.00 0.00 0.00 90 1014.1
20260502021537 11 0.0 0.0 0.00 0.00 0.00 89 1014.1
20260502020517 11 0.0 0.0 0.00 0.00 0.00 89 1014.0
20260502015517 11 0.0 0.0 0.00 0.00 0.00 90 1014.0
20260502014537 11 0.0 0.0 0.00 0.00 0.00 90 1013.9
20260502013518 11 0.0 0.0 0.00 0.00 0.00 89 1014.0
20260502012517 11 0.0 1.6 0.00 0.00 0.00 89 1013.9
20260502011517 11 0.0 0.0 0.00 0.00 0.00 89 1014.0
20260502010517 11 0.0 0.0 0.00 0.00 0.00 89 1013.6
20260502005517 11 0.0 1.6 0.00 0.00 0.00 88 1013.8
20260502004517 11 0.0 0.0 0.00 0.00 0.00 87 1013.7
20260502003517 12 0.0 0.0 0.00 0.00 0.00 86 1013.5
20260502002517 12 0.0 0.0 0.00 0.00 0.00 85 1013.4
20260502001517 12 0.0 0.0 0.00 0.00 0.00 84 1013.3
20260502000517 12 0.0 0.0 0.00 0.00 0.00 82 1013.2
20260501235537 13 0.0 0.0 0.00 0.00 0.00 81 1013.3
20260501234516 13 0.0 0.0 0.00 0.00 0.00 79 1013.3
20260501233517 13 0.0 1.6 0.00 0.00 0.00 78 1013.3
20260501232517 13 0.0 1.6 0.00 0.00 0.00 77 1013.2
20260501231516 13 0.0 1.6 0.00 0.00 0.00 76 1013.1
20260501230517 14 0.0 1.6 0.00 0.00 0.00 77 1013.0
20260501225517 14 0.0 3.2 0.00 0.00 0.00 75 1013.0
20260501224517 14 0.0 4.8 0.00 0.00 0.00 75 1013.3
20260501223517 14 0.0 4.8 0.00 0.00 0.00 73 1013.3
20260501222517 15 0.0 1.6 0.00 0.00 0.00 73 1013.5
20260501221516 15 0.0 1.6 0.00 0.00 0.00 72 1013.6
20260501220516 15 0.0 1.6 0.00 0.00 0.00 71 1013.6
20260501215517 15 0.0 4.8 0.00 0.00 0.00 70 1013.8
20260501214517 15 23 1.6 3.2 0.00 0.00 0.00 70 1013.8
20260501213516 15 315 1.6 4.8 0.00 0.00 0.00 71 1013.8
20260501212537 15 0.0 3.2 0.00 0.00 0.00 71 1013.8
20260501211517 15 0.0 1.6 0.00 0.00 0.00 68 1013.8